TOURFACTS.DK  
Stats and Facts from Tour de France.

Tour de France 2019 starts in 349 days
  Riders   Stages   Teams   Summits   Yearly  


 
Search by year

After 2018 - Stage 13:
 15000 starters.
  5163 different riders.
  639 teams.
  2245 stages.
  456 restdays.
  441769.60 km.
  5677 abandonnees.


Top 3
GC
Christopher Froome86:20:55
Rigoberto Urán86:21:49
Romain Bardet86:23:15
Climb
Warren Barguil169 pt.
Primoz Roglic80 pt.
Thomas De Gendt64 pt.
Sprint
Michael Matthews359 pt.
André Greipel234 pt.
Edvald Boasson Hagen220 pt.
Youth
Simon Yates86:27:09
Louis Meintjes86:29:15
Emanuel Buchmann86:54:16
Facts from Tour de France 2010
  |   Stages.  |   Stage winners.  |   Days in yellow  |   Average speed.  |   Route.  |   Teams.  |   All riders.  |   Rookies.  |  

  |   Withdrawls.  |   GC.  |   Polka  |   Green  |   White  |   Summits. (In tour)  |   Miscellaneous.  |  

Stage 7 on July 10th. 2010
         Owning:    Sylvain Chavanel    
Pick a stage:  Pro 1 2 3 4 5 6 7 8 9 10 11 12 13 14 15 16 17 18 19 20
From: Tournus    To: Station-des-RoussesDist:165.50 km.
Cat: 3Côte de AubapinFRAJérôme Pineau
4 points
 
Cat: 4Côte de GrangesFRAJérôme Pineau
3 points
 
Cat: 3Côte de ArinthodFRAJérôme Pineau
4 points
 
Cat: 2Côte de Barrage de VouglansFRAJérôme Pineau
10 points
 
Cat: 2Croix de la SerraFRAJérôme Pineau
10 points
 
Cat: 2Côte de LamouraFRASylvain Chavanel
20 points
 

Average speed for all riders in stage:  35,980 km./hr.
    Place:Name:Team:Time:Km/h:
FRASylvain ChavanelBELQuick Step04:22:52  +  00:00:00=37,776 
ESPRafael Valls FerriESPFooton-Servetto04:23:49  +  00:00:57=37,640 
ESPJuan Manuel GarateNLDRabobank04:24:19  +  00:01:27=37,569 
4 FRAThomas VoecklerFRABbox Bouygues Telecom04:24:32  +  00:01:40=37,538 
5 FRAMathieu PergetESPCaisse d´Epargne04:24:32  +  00:01:40=37,538 
6 ESPDaniel MorenoBELOmega Pharma - Lotto04:24:32  +  00:01:40=37,538 
7 FRAPierrick FédrigoFRABbox Bouygues Telecom04:24:39  +  00:01:47=37,521 
8 CANRyder HesjedalUSAGarmin-Transitions04:24:39  +  00:01:47=37,521 
9 ESPRubén PlazaESPCaisse d´Epargne04:24:39  +  00:01:47=37,521 
10 ITAEros CapecchiESPFooton-Servetto04:24:39  +  00:01:47=37,521 
11 FRANicolas RocheFRAAg2r La Mondiale04:24:39  +  00:01:47=37,521 
12 GERLinus GerdemannDEUTeam Milram04:24:39  +  00:01:47=37,521 
13 ESPAlberto ContadorKAZAstana Pro Team04:24:39  +  00:01:47=37,521 
14 AUSCadel EvansUSABMC Racing Team04:24:39  +  00:01:47=37,521 
15 FRACyril GautierFRABbox Bouygues Telecom04:24:39  +  00:01:47=37,521 
16 USALance ArmstrongUSATeam Radio Shack04:24:39  +  00:01:47=37,521 
17 FRADamien MonierFRACofidis Le Credit En Ligne04:24:39  +  00:01:47=37,521 
18 BELJurgen Van Den BroeckBELOmega Pharma - Lotto04:24:39  +  00:01:47=37,521 
19 ESPLuis León SánchezESPCaisse d´Epargne04:24:39  +  00:01:47=37,521 
20 LUXAndy SchleckDNKTeam Saxo Bank04:24:39  +  00:01:47=37,521 
21 CZERoman KreuzigerITALiquigas-Doimo04:24:39  +  00:01:47=37,521 
22 USALevi LeipheimerUSATeam Radio Shack04:24:39  +  00:01:47=37,521 
23 DENChris Anker SørensenDNKTeam Saxo Bank04:24:39  +  00:01:47=37,521 
24 KAZAlexandre VinokourovKAZAstana Pro Team04:24:39  +  00:01:47=37,521 
25 FRAPierre RollandFRABbox Bouygues Telecom04:24:39  +  00:01:47=37,521 
26 BELKevin De WeertBELQuick Step04:24:39  +  00:01:47=37,521 
27 ITAIvan BassoITALiquigas-Doimo04:24:39  +  00:01:47=37,521 
28 BLRKanstantin SivtsovUSATeam Columbia-HTC04:24:39  +  00:01:47=37,521 
29 RUSDenis MenchovNLDRabobank04:24:39  +  00:01:47=37,521 
30 ESPSamuel SanchezESPEuskaltel - Euskadi04:24:39  +  00:01:47=37,521 
31 SWEThomas LövkvistGBRSky Procycling04:24:39  +  00:01:47=37,521 
32 BELBradley WigginsGBRSky Procycling04:24:39  +  00:01:47=37,521 
33 ESPDaniel NavarroKAZAstana Pro Team04:24:39  +  00:01:47=37,521 
34 BELJohan VansummerenUSAGarmin-Transitions04:24:39  +  00:01:47=37,521 
35 SLOJanez BrajkovicUSATeam Radio Shack04:24:39  +  00:01:47=37,521 
36 JPNChristopher HornerUSATeam Radio Shack04:24:39  +  00:01:47=37,521 
37 NEDRobert GesinkNLDRabobank04:24:39  +  00:01:47=37,521 
38 ESPCarlos SastreCHECervelo Test Team04:24:39  +  00:01:47=37,521 
39 SUISteve MorabitoUSABMC Racing Team04:24:39  +  00:01:47=37,521 
40 FRAChristophe Le MevelFRAFrancaise Des Jeux04:24:39  +  00:01:47=37,521 
41 AUSMichael RogersUSATeam Columbia-HTC04:24:39  +  00:01:47=37,521 
42 ESPJoaquim RodriguezRUSTeam Katusha04:24:39  +  00:01:47=37,521 
43 ITADamiano CunegoITALampre-Farnese Vini04:25:59  +  00:03:07=37,333 
44 FRAJérôme PineauBELQuick Step04:26:47  +  00:03:55=37,221 
45 FRAChristophe KernFRACofidis Le Credit En Ligne04:26:52  +  00:04:00=37,210 
46 FRANicolas VogondyFRABbox Bouygues Telecom04:26:52  +  00:04:00=37,210 
47 FRASandy CasarFRAFrancaise Des Jeux04:26:52  +  00:04:00=37,210 
48 FRAJohn GadretFRAAg2r La Mondiale04:26:52  +  00:04:00=37,210 
49 FRARémi PauriolFRACofidis Le Credit En Ligne04:26:52  +  00:04:00=37,210 
50 GERAndréas KlödenUSATeam Radio Shack04:26:52  +  00:04:00=37,210 
51 NEDBram TankinkNLDRabobank04:26:52  +  00:04:00=37,210 
52 ESPGorka VerdugoESPEuskaltel - Euskadi04:26:52  +  00:04:00=37,210 
53 RUSVladimir KarpetsRUSTeam Katusha04:26:52  +  00:04:00=37,210 
54 ESPIvan VelascoESPEuskaltel - Euskadi04:26:52  +  00:04:00=37,210 
55 BELMaxime MonfortUSATeam Columbia-HTC04:26:52  +  00:04:00=37,210 
56 ITAMauro SantambrogioUSABMC Racing Team04:27:54  +  00:05:02=37,066 
57 ITAPaolo TiralongoKAZAstana Pro Team04:27:54  +  00:05:02=37,066 
58 WALGeraint ThomasGBRSky Procycling04:28:10  +  00:05:18=37,029 
59 FRAChristophe RiblonFRAAg2r La Mondiale04:28:56  +  00:06:04=36,924 
60 FRAJulien El FarèsFRACofidis Le Credit En Ligne04:28:56  +  00:06:04=36,924 
61 GERGrischa NiermannNLDRabobank04:28:56  +  00:06:04=36,924 
62 RUSAlexandr KolobnevRUSTeam Katusha04:28:56  +  00:06:04=36,924 
63 BELJurgen Van De WalleBELQuick Step04:28:56  +  00:06:04=36,924 
64 FRAAmaël MoinardFRACofidis Le Credit En Ligne04:28:56  +  00:06:04=36,924 
65 UKRYaroslav PopovychUSATeam Radio Shack04:32:54  +  00:10:02=36,387 
66 PORSergio PaulinhoUSATeam Radio Shack04:32:54  +  00:10:02=36,387 
67 ESPEgoi MartínezESPEuskaltel - Euskadi04:32:54  +  00:10:02=36,387 
68 POLSylvester SzmydITALiquigas-Doimo04:32:54  +  00:10:02=36,387 
69 GERChristian KneesDEUTeam Milram04:32:54  +  00:10:02=36,387 
70 GERJohannes FröhlingerDEUTeam Milram04:32:54  +  00:10:02=36,387 
71 UKRVolodymir GustovCHECervelo Test Team04:32:54  +  00:10:02=36,387 
72 ESPJosé Ivan GutierrezESPCaisse d´Epargne04:32:54  +  00:10:02=36,387 
73 GERFabian WegmannDEUTeam Milram04:32:54  +  00:10:02=36,387 
74 FINCharles WegeliusBELOmega Pharma - Lotto04:32:54  +  00:10:02=36,387 
75 ESPCarlos BarredoBELQuick Step04:32:54  +  00:10:02=36,387 
76 AUTThomas RohreggerDEUTeam Milram04:32:54  +  00:10:02=36,387 
77 BLRVasil KiryienkaESPCaisse d´Epargne04:33:54  +  00:11:02=36,254 
78 BELFrancis De GreefBELOmega Pharma - Lotto04:35:51  +  00:12:59=35,998 
79 SUIJakob FuglsangDNKTeam Saxo Bank04:35:51  +  00:12:59=35,998 
80 PORRui CostaESPCaisse d´Epargne04:35:51  +  00:12:59=35,998 
81 ITARinaldo NocentiniFRAAg2r La Mondiale04:35:51  +  00:12:59=35,998 
82 BELMario AertsBELOmega Pharma - Lotto04:35:51  +  00:12:59=35,998 
83 AUSMatthew LloydBELOmega Pharma - Lotto04:35:51  +  00:12:59=35,998 
84 SUIFabian CancellaraDNKTeam Saxo Bank04:37:04  +  00:14:12=35,840 
85 DENMatti BreschelDNKTeam Saxo Bank04:37:04  +  00:14:12=35,840 
86 ESPJosé Joaquin RojasESPCaisse d´Epargne04:37:04  +  00:14:12=35,840 
87 GERJens VoigtDNKTeam Saxo Bank04:37:04  +  00:14:12=35,840 
88 FRAChristophe MoreauESPCaisse d´Epargne04:37:04  +  00:14:12=35,840 
89 ESPIban MayozESPFooton-Servetto04:37:04  +  00:14:12=35,840 
90 ESPAitor PerezESPFooton-Servetto04:37:04  +  00:14:12=35,840 
91 FRASébastien MinardFRACofidis Le Credit En Ligne04:37:04  +  00:14:12=35,840 
92 BLRAliaksandr KuchynskiITALiquigas-Doimo04:37:04  +  00:14:12=35,840 
93 ESPDavid De La FuenteKAZAstana Pro Team04:37:04  +  00:14:12=35,840 
94 USAGeorge HincapieUSABMC Racing Team04:37:04  +  00:14:12=35,840 
95 GERDanilo HondoITALampre-Farnese Vini04:37:04  +  00:14:12=35,840 
96 BELKevin SeeldraeyersBELQuick Step04:37:04  +  00:14:12=35,840 
97 ESPÓscar Freire GómezNLDRabobank04:41:49  +  00:18:57=35,236 
98 DENNicki SørensenDNKTeam Saxo Bank04:41:49  +  00:18:57=35,236 
99 KAZDmitriy MuravyevUSATeam Radio Shack04:41:49  +  00:18:57=35,236 
100 SUIGregory RastUSATeam Radio Shack04:41:49  +  00:18:57=35,236 
101 NOREdvald Boasson HagenGBRSky Procycling04:41:49  +  00:18:57=35,236 
102 MLTDavid MillarUSAGarmin-Transitions04:41:49  +  00:18:57=35,236 
103 RSARobert HunterUSAGarmin-Transitions04:42:06  +  00:19:14=35,200 
104 ARGJuan Antonio FlechaGBRSky Procycling04:42:06  +  00:19:14=35,200 
105 ITAFabio FellineESPFooton-Servetto04:42:06  +  00:19:14=35,200 
106 SUIMartin ElmigerFRAAg2r La Mondiale04:42:06  +  00:19:14=35,200 
107 MDAAlexandr PliuschinRUSTeam Katusha04:42:06  +  00:19:14=35,200 
108 GERSebastian LangBELOmega Pharma - Lotto04:42:06  +  00:19:14=35,200 
109 BELSerge PauwelsGBRSky Procycling04:42:06  +  00:19:14=35,200 
110 ITAMauro Da DaltoITALampre-Farnese Vini04:42:06  +  00:19:14=35,200 
111 ITAAlessandro PetacchiITALampre-Farnese Vini04:42:06  +  00:19:14=35,200 
112 ESPBenjamin NovalKAZAstana Pro Team04:42:06  +  00:19:14=35,200 
113 NEDLars BoomNLDRabobank04:42:06  +  00:19:14=35,200 
114 AUSSimon GerransGBRSky Procycling04:42:06  +  00:19:14=35,200 
115 GERTony MartinUSATeam Columbia-HTC04:42:06  +  00:19:14=35,200 
116 ESPJesus  HernandezKAZAstana Pro Team04:42:06  +  00:19:14=35,200 
117 SLOGrega BoleITALampre-Farnese Vini04:42:06  +  00:19:14=35,200 
118 FRAMatthieu SprickFRABbox Bouygues Telecom04:42:06  +  00:19:14=35,200 
119 FRARémy Di GrégorioFRAFrancaise Des Jeux04:42:06  +  00:19:14=35,200 
120 FRAAnthony CharteauFRABbox Bouygues Telecom04:42:06  +  00:19:14=35,200 
121 ITAFrancesco GavazziITALampre-Farnese Vini04:42:06  +  00:19:14=35,200 
122 RUSSerguei IvanovRUSTeam Katusha04:42:06  +  00:19:14=35,200 
123 BELMaarten WynantsBELQuick Step04:42:06  +  00:19:14=35,200 
124 CANMichael BarryGBRSky Procycling04:42:06  +  00:19:14=35,200 
125 RUSEduard VorganovRUSTeam Katusha04:42:06  +  00:19:14=35,200 
126 KAZMaxim IglinskiyKAZAstana Pro Team04:42:06  +  00:19:14=35,200 
127 NEDKoos MoerenhoutNLDRabobank04:42:06  +  00:19:14=35,200 
128 SLOSimon SpilakITALampre-Farnese Vini04:42:06  +  00:19:14=35,200 
129 FRAMaxime BouetFRAAg2r La Mondiale04:42:06  +  00:19:14=35,200 
130 ESPImanol ErvitiESPCaisse d´Epargne04:42:06  +  00:19:14=35,200 
131 FRAMatthieu LadagnousFRAFrancaise Des Jeux04:42:06  +  00:19:14=35,200 
132 RUSPavel BruttRUSTeam Katusha04:42:06  +  00:19:14=35,200 
133 FRABenoit VaugrenardFRAFrancaise Des Jeux04:42:06  +  00:19:14=35,200 
134 ESPArkaitz DuranESPFooton-Servetto04:42:06  +  00:19:14=35,200 
135 ESPJosé BenitezESPFooton-Servetto04:42:06  +  00:19:14=35,200 
136 ESPIñaki Isasi FloresESPEuskaltel - Euskadi04:42:06  +  00:19:14=35,200 
137 ESPRuben PerezESPEuskaltel - Euskadi04:42:06  +  00:19:14=35,200 
138 FRAJérémy RoyFRAFrancaise Des Jeux04:42:06  +  00:19:14=35,200 
139 ITAAlessandro BallanUSABMC Racing Team04:42:06  +  00:19:14=35,200 
140 NEDMaarten TjallingiiNLDRabobank04:45:09  +  00:22:17=34,824 
141 ITADaniel OssITALiquigas-Doimo04:45:09  +  00:22:17=34,824 
142 AUSBrett LancasterCHECervelo Test Team04:45:09  +  00:22:17=34,824 
143 ITAManuel QuinziatoITALiquigas-Doimo04:45:09  +  00:22:17=34,824 
144 DENBrian VandborgITALiquigas-Doimo04:45:09  +  00:22:17=34,824 
145 SLOKristjan KorenITALiquigas-Doimo04:45:09  +  00:22:17=34,824 
146 FRASébastien TurgotFRABbox Bouygues Telecom04:45:09  +  00:22:17=34,824 
147 ESPAlan PerezESPEuskaltel - Euskadi04:45:09  +  00:22:17=34,824 
148 ITAFrancesco BellottiITALiquigas-Doimo04:45:09  +  00:22:17=34,824 
149 ENGDaniel LloydCHECervelo Test Team04:45:09  +  00:22:17=34,824 
150 GERBert GrabschUSATeam Columbia-HTC04:45:09  +  00:22:17=34,824 
151 AUSMark RenshawUSATeam Columbia-HTC04:45:09  +  00:22:17=34,824 
152 UKRAndriy GrivkoKAZAstana Pro Team04:45:09  +  00:22:17=34,824 
153 FRAAnthony GeslinFRAFrancaise Des Jeux04:45:09  +  00:22:17=34,824 
154 AUSWesley SulzbergerFRAFrancaise Des Jeux04:45:09  +  00:22:17=34,824 
155 NZLJulian DeanUSAGarmin-Transitions04:45:09  +  00:22:17=34,824 
156 USATyler FarrarUSAGarmin-Transitions04:45:09  +  00:22:17=34,824 
157 AUTMarkus EibeggerESPFooton-Servetto04:45:09  +  00:22:17=34,824 
158 USADavid ZabriskieUSAGarmin-Transitions04:45:09  +  00:22:17=34,824 
159 AUTBernhard EiselUSATeam Columbia-HTC04:45:09  +  00:22:17=34,824 
160 FRALloyd MondoryFRAAg2r La Mondiale04:45:09  +  00:22:17=34,824 
161 IOMMark CavendishUSATeam Columbia-HTC04:45:09  +  00:22:17=34,824 
162 GERGerald CiolekDEUTeam Milram04:45:09  +  00:22:17=34,824 
163 ITAAdriano MaloriITALampre-Farnese Vini04:45:09  +  00:22:17=34,824 
164 FRAStéphane AugeFRACofidis Le Credit En Ligne04:45:09  +  00:22:17=34,824 
165 ITAMirco LorenzettoITALampre-Farnese Vini04:45:09  +  00:22:17=34,824 
166 JPNYukiya ArashiroFRABbox Bouygues Telecom04:45:09  +  00:22:17=34,824 
167 FRASamuel DumoulinFRACofidis Le Credit En Ligne04:45:09  +  00:22:17=34,824 
168 URSRein TaaramäeFRACofidis Le Credit En Ligne04:45:09  +  00:22:17=34,824 
169 FRADimitri ChampionFRAAg2r La Mondiale04:45:09  +  00:22:17=34,824 
170 FRAAnthony RouxFRAFrancaise Des Jeux04:45:09  +  00:22:17=34,824 
171 URSIgnatas KonovalovasCHECervelo Test Team04:45:09  +  00:22:17=34,824 
172 USABrent BookwalterUSABMC Racing Team04:45:09  +  00:22:17=34,824 
173 AUSStuart O'GradyDNKTeam Saxo Bank04:45:09  +  00:22:17=34,824 
174 ITAFrancesco RedaBELQuick Step04:45:09  +  00:22:17=34,824 
175 AUSRobbie McEwenRUSTeam Katusha04:45:09  +  00:22:17=34,824 
176 GERMarcus BurghardtUSABMC Racing Team04:45:09  +  00:22:17=34,824 
177 AUSLuke RobertsDEUTeam Milram04:45:09  +  00:22:17=34,824 
178 NEDKarsten KroonUSABMC Racing Team04:45:09  +  00:22:17=34,824 
179 NORThor HushovdCHECervelo Test Team04:45:09  +  00:22:17=34,824 
180 ENGStephen CummingsGBRSky Procycling04:45:09  +  00:22:17=34,824 
181 NEDMartijn MaaskantUSAGarmin-Transitions04:45:09  +  00:22:17=34,824 
182 BELJürgen RoelandtsBELOmega Pharma - Lotto04:45:09  +  00:22:17=34,824 
183 CANJeremy HuntCHECervelo Test Team04:45:09  +  00:22:17=34,824 
184 GERRoger KlugeDEUTeam Milram04:45:09  +  00:22:17=34,824 
185 GERAndreas KlierCHECervelo Test Team04:45:09  +  00:22:17=34,824 
186 BELDries DevenynsBELQuick Step04:45:09  +  00:22:17=34,824 

Withdrawls: 2
 
Rider
Team
Reason
78  BELStijn VandenberghRUSTeam KatushaExceeded time limit
184  ESPJuan José OrozESPEuskaltel - EuskadiDid not start

Todays birthdays.

1889  Arthur Godart
1901  Félix Baud
1904  Fernand Fayolle
1921  Pietro Giudici
1932  Félix Le Buhotel
1932  Piet Van Den Brekel
1954  Hennie Stamsnijder
1965  Francis Moreau
1980  Andrey Kashechkin
1981  Stefan Schumacher




Visits: